Regional Weather Roundup
Issued by NWS Cleveland, OH

Home | Current Version | Previous Version | Text Only | Print | Product List | Glossary On
Versions: 1 2 3 4 5 6 7 8 9 10 11 12 13 14 15 16 17 18 19 20 21 22 23 24 25 26 27 28 29 30 31 32 33 34 35 36 37 38 39 40 41 42 43 44 45 46 47 48 49 50
000
ASUS41 KCLE 290710
RWRCLE
OHIO REGIONAL WEATHER ROUNDUP
NATIONAL WEATHER SERVICE WILMINGTON, OH
300 AM EDT WED JUL 29 2015

NOTE: "FAIR" INDICATES FEW OR NO CLOUDS BELOW 12,000 FEET WITH NO
SIGNIFICANT WEATHER AND/OR OBSTRUCTIONS TO VISIBILITY.

OHZ001>008-015>018-024>027-034-035-043-044-290800-
   NORTHWEST OHIO

CITY           SKY/WX    TMP DP  RH WIND       PRES   REMARKS
DEFIANCE       NOT AVBL
FINDLAY        NOT AVBL
TOLEDO EXPRESS NOT AVBL
TOLEDO EXEC    NOT AVBL
LIMA           CLEAR     71  66  84 SE3       29.99F
$$

OHZ009>014-019>023-028>033-038-089-290800-
   NORTHEAST OHIO

CITY           SKY/WX    TMP DP  RH WIND       PRES   REMARKS
CLE-HOPKINS    PTCLDY    71  61  70 CALM      30.00F
CLE-LAKEFRONT  CLEAR     76  60  57 CALM      29.97F
CUY CO. ARPT   NOT AVBL
LORAIN-ELYRIA  CLEAR     65  61  87 CALM      29.99F
ASHTABULA      CLEAR     64  62  93 CALM      30.02F
AKRON-CANTON   PTCLDY    70  63  78 NE6       30.01F
WOOSTER        CLEAR     64  63  96 CALM      30.01F
MANSFIELD      CLEAR     67  65  93 CALM      30.01F
YOUNGSTOWN     PTCLDY    67  63  87 E7        30.01F
$$

OHZ042-051>053-060>062-070>072-077>081-290800-
  SOUTHWEST OHIO

CITY           SKY/WX    TMP DP  RH WIND       PRES   REMARKS
CINC-COVINGTON PTCLDY    76  73  91 CALM      29.97F
CINC-LUNKEN    CLEAR     72  72 100 CALM      29.96F FOG
HAMILTON       CLEAR     72  71  97 CALM      29.97S FOG
DAYTON         CLEAR     73  71  93 E3        29.98F
WRIGHT-PAT AFB PTCLDY    73  72  94 CALM      29.97F
DAYTON GENERAL CLEAR     74  70  87 CALM      29.97F
WILMINGTON     CLEAR     70  68  93 CALM      29.98F FOG
$$

OHZ036-037-039>041-045>050-054>059-063>069-073>076-082>088-290800-
  CENTRAL AND SOUTHEAST OHIO

CITY           SKY/WX    TMP DP  RH WIND       PRES   REMARKS
COLUMBUS       PTCLDY    73  69  87 CALM      29.97F
OSU AIRPORT    CLEAR     73  69  87 CALM      29.98F
BOLTON FIELD   CLEAR     70  70  99 CALM      29.99F FOG
RICKENBACK AFB CLEAR     72  70  93 CALM      29.97F
NEWARK         CLEAR     70  68  93 CALM      29.98S FOG
MARION         PTCLDY    70  66  87 CALM      30.00S FOG
LANCASTER      CLEAR     69  67  93 NE3       29.98F FOG
ZANESVILLE     CLEAR     72  68  87 SE3       29.98F FOG
NEW PHILLY     CLEAR     68  66  93 CALM      29.99F FOG
$$



USA.gov is the U.S. government's official web portal to all federal, state and local government web resources and services.